[ hide orbit diagram ]
For accurate long-term ephemerides, please instead use our Horizons system.This orbit viewer was implemented using two-body methods, and hence should not be used for determining accurate long-term trajectories (over several years or decades) or planetary encounter circumstances.
Orbital Elements at Epoch 2459000.5 (2020-May-31.0) TDB
Reference: JPL 12 (heliocentric ecliptic J2000)
Element | Value | Uncertainty (1-sigma) | Units |
e | .1898674545639756 | 7.7021e-08 | |
a | 3.117046139069284 | 2.7135e-08 | au |
q | 2.525220522885731 | 2.3348e-07 | au |
i | 11.58532278614513 | 6.4999e-06 | deg |
node | 246.1130537897466 | 2.8924e-05 | deg |
peri | 125.3002862105214 | 3.1809e-05 | deg |
M | 189.024374313562 | 1.6302e-05 | deg |
tp | 2459955.151752296455 (2023-Jan-10.65175230) | 9.9468e-05 | TDB |
period | 2010.079679176073 5.50 | 2.6248e-05 7.186e-08 | d yr |
n | .1790973779445217 | 2.3387e-09 | deg/d |
Q | 3.708871755252837 | 3.2288e-08 | au |
|
| | Orbit Determination Parameters
Additional Information
|
[ show covariance matrix ]
Physical Parameter Table
Parameter |
Symbol |
Value |
Units |
Sigma |
Reference |
Notes |
absolute magnitude |
H |
15.1 |
|
n/a |
MPO338728 |
|
|
243779 (2000 SQ5) Discovered 2000-Sep-22 by LINEAR at Socorro |
Reference: 20100726/Numbers.arc | Last Updated: 2010-07-28 |
|
[ show close-approach data ]
|